Location: Antoign�
(47.0844°N, 0.1131°W)
Time: 08:18:00
(UTC+00:00)

Cosmos 2084 Rocket - Pass Details

Date: 03 March 2021
Orbit: 528 x 652 km, 62.8° (Epoch: 11 April)

Event Time Altitude Azimuth Distance (km) Brightness Sun altitude
Rises 18:22:46 0° 321° (NW) 2,795 7.5 -6.6°
Reaches altitude 10° 18:25:00 10° 325° (NW) 1,913 6.6 -6.9°
Maximum altitude 18:29:17 60° 46° (NE) 690 3.6 -7.7°
Drops below altitude 10° 18:33:43 10° 127° (SE) 1,980 5.7 -8.4°
Enters shadow 18:35:02 - 129° (SE) 2,496 6.2 -8.6°
